Hourly Data Report for July 28, 2021

TORONTO CITY
ONTARIO
Current Station Operator: ECCC - MSC

43°40'00.000" N
79°24'00.000" W
112.50 m
6158355
71508
XTO

Download Data

Hourly Data (July 2021)
Hourly Data Report for July 28, 2021
TIME
LST
Temp Definition
°C
Dew Point Definition
°C
Rel Hum Definition
%
Precip. Amount Definition
mm

Wind Dir Definition
10's deg

Wind Spd Definition
km/h
Visibility Definition
km
Stn Press Definition
kPa
Hmdx Definition


Wind Chill Definition


Weather Definition


00:00 19.3 17.1 87 0.0       100.29     LegendNANA
01:00 19.4 16.7 84 0.0       100.32     LegendNANA
02:00 19.6 17.1 86 0.0       100.32     LegendNANA
03:00 19.6 17.8 89 0.0       100.35     LegendNANA
04:00 19.8 17.8 88 0.0       100.38     LegendNANA
05:00 19.3 17.4 89 0.0       100.43     LegendNANA
06:00 18.8 16.9 89 0.0       100.49     LegendNANA
07:00 19.1 17.0 87 0.0       100.52     LegendNANA
08:00 20.2 17.4 84 0.0       100.55 26   LegendNANA
09:00 20.6 17.0 80 0.0       100.56 26   LegendNANA
10:00 21.8 16.8 73 0.0       100.56 27   LegendNANA
11:00 21.9 16.6 72 0.0       100.50 27   LegendNANA
12:00 22.3 16.5 70 0.0       100.50 27   LegendNANA
13:00 22.7 15.8 65 0.0       100.48 27   LegendNANA
14:00 22.6 16.6 69 0.0       100.48 28   LegendNANA
15:00 22.4 15.5 65 0.0       100.44 27   LegendNANA
16:00 23.0 15.4 62 0.0       100.39 27   LegendNANA
17:00 22.6 13.6 56 0.0       100.34 26   LegendNANA
18:00 22.1 13.5 58 0.0       100.31 25   LegendNANA
19:00 21.5 13.7 61 0.0       100.34 25   LegendNANA
20:00 20.8 12.8 60 0.0       100.29     LegendNANA
21:00 20.7 13.4 63 0.0       100.29     LegendNANA
22:00 20.5 14.6 69 0.0       100.24     LegendNANA
23:00 20.1 14.5 70 0.0       100.22     LegendNANA

Notes on Data Quality.

Legend

  • E = Estimated
  • M = Missing
  • NA = Not Available*
  • [empty] = Indicates an unobserved value
Date modified: